Donnes mto: Actuelle mercredi, 19/12/2018 06:00
Date Horaire Temp. E. Hum. E. P.atmo. Pluie Vent Direction Direction Ensoleilleme Ev.Tr. UV Solaire P. de rose Temp au vent Rafales
19/12/2018 06:00 7,8 C 92 % 1017,7 hPa 0,0 mm 1,8 km/h (1 Bft) S-SE 148 0 min 0,000 mm 0,0 UV-I 0 W/m 6,6 C 7,8 C 6,4 km/h (2 Bft)
19/12/2018 05:55 7,8 C 92 % 1017,7 hPa 0,2 mm 2,9 km/h (1 Bft) E-SE 118 0 min 0,000 mm 0,0 UV-I 0 W/m 6,6 C 7,8 C 9,7 km/h (2 Bft)
19/12/2018 05:50 7,8 C 92 % 1017,7 hPa 0,0 mm 3,2 km/h (1 Bft) E 87 0 min 0,000 mm 0,0 UV-I 0 W/m 6,6 C 7,8 C 9,7 km/h (2 Bft)
19/12/2018 05:45 7,8 C 92 % 1017,8 hPa 0,0 mm 4,1 km/h (1 Bft) E-SE 109 0 min 0,000 mm 0,0 UV-I 0 W/m 6,6 C 7,8 C 8,0 km/h (2 Bft)
19/12/2018 05:40 7,8 C 92 % 1017,9 hPa 0,0 mm 1,6 km/h (1 Bft) S 178 0 min 0,000 mm 0,0 UV-I 0 W/m 6,6 C 7,8 C 4,8 km/h (1 Bft)
19/12/2018 05:35 7,8 C 92 % 1017,9 hPa 0,0 mm 2,8 km/h (1 Bft) SE 146 0 min 0,000 mm 0,0 UV-I 0 W/m 6,6 C 7,8 C 6,4 km/h (2 Bft)
19/12/2018 05:30 7,8 C 92 % 1018,1 hPa 0,0 mm 0,6 km/h (0 Bft) S-SE 148 0 min 0,000 mm 0,0 UV-I 0 W/m 6,6 C 7,8 C 4,8 km/h (1 Bft)
19/12/2018 05:25 7,8 C 92 % 1018,0 hPa 0,0 mm 1,9 km/h (1 Bft) SE 133 0 min 0,000 mm 0,0 UV-I 0 W/m 6,6 C 7,8 C 4,8 km/h (1 Bft)
19/12/2018 05:20 7,8 C 92 % 1018,0 hPa 0,0 mm 1,2 km/h (1 Bft) SE 129 0 min 0,000 mm 0,0 UV-I 0 W/m 6,6 C 7,8 C 4,8 km/h (1 Bft)
19/12/2018 05:15 7,8 C 92 % 1018,0 hPa 0,0 mm 0,5 km/h (0 Bft) S-SE 148 0 min 0,000 mm 0,0 UV-I 0 W/m 6,6 C 7,8 C 4,8 km/h (1 Bft)
19/12/2018 05:10 7,8 C 92 % 1018,0 hPa 0,0 mm 0,0 km/h (0 Bft) S 175 0 min 0,000 mm 0,0 UV-I 0 W/m 6,6 C 7,8 C 1,6 km/h (1 Bft)
19/12/2018 05:05 7,8 C 92 % 1018,1 hPa 0,0 mm 0,1 km/h (0 Bft) S-SE 159 0 min 0,000 mm 0,0 UV-I 0 W/m 6,6 C 7,8 C 3,2 km/h (1 Bft)
19/12/2018 05:00 7,8 C 92 % 1018,1 hPa 0,0 mm 0,0 km/h (0 Bft) E 82 0 min 0,000 mm 0,0 UV-I 0 W/m 6,6 C 7,8 C 1,6 km/h (1 Bft)
19/12/2018 04:55 7,8 C 92 % 1018,2 hPa 0,0 mm 0,0 km/h (0 Bft) E 79 0 min 0,000 mm 0,0 UV-I 0 W/m 6,6 C 7,8 C 0,0 km/h (0 Bft)
19/12/2018 04:50 7,9 C 92 % 1018,2 hPa 0,2 mm 0,4 km/h (0 Bft) E-NE 68 0 min 0,000 mm 0,0 UV-I 0 W/m 6,7 C 7,9 C 3,2 km/h (1 Bft)
19/12/2018 04:45 7,8 C 92 % 1018,3 hPa 0,0 mm 0,0 km/h (0 Bft) SE 135 0 min 0,000 mm 0,0 UV-I 0 W/m 6,6 C 7,8 C 1,6 km/h (1 Bft)
19/12/2018 04:40 7,9 C 92 % 1018,4 hPa 0,0 mm 0,6 km/h (0 Bft) SE 130 0 min 0,000 mm 0,0 UV-I 0 W/m 6,7 C 7,9 C 4,8 km/h (1 Bft)
19/12/2018 04:35 7,9 C 92 % 1018,4 hPa 0,2 mm 0,4 km/h (0 Bft) SE 137 0 min 0,000 mm 0,0 UV-I 0 W/m 6,7 C 7,9 C 3,2 km/h (1 Bft)
19/12/2018 04:30 7,9 C 92 % 1018,4 hPa 0,0 mm 0,9 km/h (0 Bft) O-NO 290 0 min 0,000 mm 0,0 UV-I 0 W/m 6,7 C 7,9 C 4,8 km/h (1 Bft)
19/12/2018 04:25 7,9 C 92 % 1018,5 hPa 0,0 mm 0,8 km/h (0 Bft) SE 130 0 min 0,000 mm 0,0 UV-I 0 W/m 6,7 C 7,9 C 6,4 km/h (2 Bft)
19/12/2018 04:20 7,9 C 92 % 1018,5 hPa 0,0 mm 1,2 km/h (1 Bft) E-SE 113 0 min 0,000 mm 0,0 UV-I 0 W/m 6,7 C 7,9 C 4,8 km/h (1 Bft)
19/12/2018 04:15 7,9 C 92 % 1018,5 hPa 0,0 mm 1,7 km/h (1 Bft) E-SE 115 0 min 0,000 mm 0,0 UV-I 0 W/m 6,7 C 7,9 C 6,4 km/h (2 Bft)
19/12/2018 04:10 7,9 C 92 % 1018,5 hPa 0,0 mm 0,1 km/h (0 Bft) S 188 0 min 0,000 mm 0,0 UV-I 0 W/m 6,7 C 7,9 C 3,2 km/h (1 Bft)
19/12/2018 04:05 8,0 C 92 % 1018,5 hPa 0,0 mm 0,8 km/h (0 Bft) E-NE 69 0 min 0,000 mm 0,0 UV-I 0 W/m 6,8 C 8,0 C 3,2 km/h (1 Bft)
19/12/2018 04:00 8,1 C 92 % 1018,5 hPa 0,0 mm 1,4 km/h (1 Bft) E-SE 104 0 min 0,000 mm 0,0 UV-I 0 W/m 6,9 C 8,1 C 4,8 km/h (1 Bft)
19/12/2018 03:55 8,1 C 92 % 1018,9 hPa 0,2 mm 3,7 km/h (1 Bft) SE 141 0 min 0,000 mm 0,0 UV-I 0 W/m 6,9 C 8,1 C 9,7 km/h (2 Bft)
19/12/2018 03:50 8,1 C 92 % 1018,8 hPa 0,0 mm 3,2 km/h (1 Bft) E-NE 64 0 min 0,000 mm 0,0 UV-I 0 W/m 6,9 C 8,1 C 8,0 km/h (2 Bft)
19/12/2018 03:45 8,0 C 92 % 1018,9 hPa 0,0 mm 1,6 km/h (1 Bft) SO 227 0 min 0,000 mm 0,0 UV-I 0 W/m 6,8 C 8,0 C 9,7 km/h (2 Bft)
19/12/2018 03:40 8,0 C 92 % 1019,0 hPa 0,0 mm 2,8 km/h (1 Bft) SE 146 0 min 0,000 mm 0,0 UV-I 0 W/m 6,8 C 8,0 C 11,3 km/h (2 Bft)
19/12/2018 03:35 8,1 C 92 % 1018,7 hPa 0,0 mm 2,5 km/h (1 Bft) E 85 0 min 0,000 mm 0,0 UV-I 0 W/m 6,9 C 8,1 C 8,0 km/h (2 Bft)
19/12/2018 03:30 8,0 C 92 % 1018,6 hPa 0,0 mm 3,0 km/h (1 Bft) S-SE 150 0 min 0,000 mm 0,0 UV-I 0 W/m 6,8 C 8,0 C 4,8 km/h (1 Bft)
19/12/2018 03:25 8,0 C 91 % 1018,5 hPa 0,0 mm 0,1 km/h (0 Bft) SE 146 0 min 0,000 mm 0,0 UV-I 0 W/m 6,6 C 8,0 C 1,6 km/h (1 Bft)
19/12/2018 03:20 8,1 C 91 % 1018,6 hPa 0,0 mm 1,7 km/h (1 Bft) E-SE 123 0 min 0,000 mm 0,0 UV-I 0 W/m 6,7 C 8,1 C 4,8 km/h (1 Bft)
19/12/2018 03:15 8,1 C 91 % 1018,8 hPa 0,2 mm 0,6 km/h (0 Bft) E-SE 115 0 min 0,000 mm 0,0 UV-I 0 W/m 6,7 C 8,1 C 4,8 km/h (1 Bft)
19/12/2018 03:10 8,1 C 91 % 1018,9 hPa 0,0 mm 0,2 km/h (0 Bft) E-SE 119 0 min 0,000 mm 0,0 UV-I 0 W/m 6,7 C 8,1 C 3,2 km/h (1 Bft)
19/12/2018 03:05 8,2 C 91 % 1018,9 hPa 0,0 mm 0,0 km/h (0 Bft) SE 132 0 min 0,000 mm 0,0 UV-I 0 W/m 6,8 C 8,2 C 0,0 km/h (0 Bft)
19/12/2018 03:00 8,2 C 91 % 1018,9 hPa 0,0 mm 1,2 km/h (1 Bft) SE 145 0 min 0,000 mm 0,0 UV-I 0 W/m 6,8 C 8,2 C 6,4 km/h (2 Bft)
19/12/2018 02:55 8,2 C 91 % 1018,8 hPa 0,0 mm 1,8 km/h (1 Bft) S-SO 201 0 min 0,000 mm 0,0 UV-I 0 W/m 6,8 C 8,2 C 6,4 km/h (2 Bft)
19/12/2018 02:50 8,2 C 91 % 1018,9 hPa 0,2 mm 2,6 km/h (1 Bft) S-SO 200 0 min 0,000 mm 0,0 UV-I 0 W/m 6,8 C 8,2 C 8,0 km/h (2 Bft)
19/12/2018 02:45 8,3 C 91 % 1018,9 hPa 0,0 mm 4,6 km/h (1 Bft) S 174 0 min 0,000 mm 0,0 UV-I 0 W/m 6,9 C 8,0 C 8,0 km/h (2 Bft)
19/12/2018 02:40 8,3 C 91 % 1018,9 hPa 0,0 mm 4,3 km/h (1 Bft) S-SO 207 0 min 0,000 mm 0,0 UV-I 0 W/m 6,9 C 8,3 C 8,0 km/h (2 Bft)
19/12/2018 02:35 8,3 C 91 % 1018,8 hPa 0,0 mm 4,3 km/h (1 Bft) SO 221 0 min 0,000 mm 0,0 UV-I 0 W/m 6,9 C 8,3 C 9,7 km/h (2 Bft)
19/12/2018 02:30 8,3 C 90 % 1018,8 hPa 0,2 mm 3,9 km/h (1 Bft) SO 221 0 min 0,000 mm 0,0 UV-I 0 W/m 6,8 C 8,3 C 9,7 km/h (2 Bft)
19/12/2018 02:25 8,3 C 91 % 1018,8 hPa 0,0 mm 4,5 km/h (1 Bft) S-SO 207 0 min 0,000 mm 0,0 UV-I 0 W/m 6,9 C 8,3 C 6,4 km/h (2 Bft)
19/12/2018 02:20 8,4 C 90 % 1018,8 hPa 0,2 mm 4,5 km/h (1 Bft) SO 232 0 min 0,000 mm 0,0 UV-I 0 W/m 6,9 C 8,4 C 9,7 km/h (2 Bft)
19/12/2018 02:15 8,4 C 90 % 1018,9 hPa 0,0 mm 4,0 km/h (1 Bft) O 277 0 min 0,000 mm 0,0 UV-I 0 W/m 6,9 C 8,4 C 11,3 km/h (2 Bft)
19/12/2018 02:10 8,4 C 90 % 1018,9 hPa 0,2 mm 3,6 km/h (1 Bft) O-SO 243 0 min 0,000 mm 0,0 UV-I 0 W/m 6,9 C 8,4 C 6,4 km/h (2 Bft)
19/12/2018 02:05 8,5 C 90 % 1018,8 hPa 0,0 mm 3,6 km/h (1 Bft) O-NO 284 0 min 0,000 mm 0,0 UV-I 0 W/m 7,0 C 8,5 C 12,9 km/h (3 Bft)
19/12/2018 02:00 8,6 C 90 % 1018,8 hPa 0,0 mm 4,4 km/h (1 Bft) O 259 0 min 0,000 mm 0,0 UV-I 0 W/m 7,1 C 8,6 C 11,3 km/h (2 Bft)
19/12/2018 01:55 8,6 C 90 % 1018,8 hPa 0,0 mm 4,5 km/h (1 Bft) SO 225 0 min 0,000 mm 0,0 UV-I 0 W/m 7,1 C 8,6 C 11,3 km/h (2 Bft)
19/12/2018 01:50 8,7 C 90 % 1018,7 hPa 0,0 mm 6,2 km/h (2 Bft) SO 223 0 min 0,000 mm 0,0 UV-I 0 W/m 7,2 C 7,9 C 11,3 km/h (2 Bft)
19/12/2018 01:45 8,7 C 89 % 1018,7 hPa 0,0 mm 3,8 km/h (1 Bft) SO 223 0 min 0,000 mm 0,0 UV-I 0 W/m 7,0 C 8,7 C 9,7 km/h (2 Bft)
19/12/2018 01:40 8,8 C 89 % 1018,7 hPa 0,2 mm 3,1 km/h (1 Bft) O-NO 292 0 min 0,000 mm 0,0 UV-I 0 W/m 7,1 C 8,8 C 11,3 km/h (2 Bft)
19/12/2018 01:35 8,9 C 89 % 1018,7 hPa 0,0 mm 1,2 km/h (1 Bft) O-SO 255 0 min 0,000 mm 0,0 UV-I 0 W/m 7,2 C 8,9 C 4,8 km/h (1 Bft)
19/12/2018 01:30 8,9 C 89 % 1018,7 hPa 0,0 mm 1,0 km/h (0 Bft) O-NO 287 0 min 0,000 mm 0,0 UV-I 0 W/m 7,2 C 8,9 C 4,8 km/h (1 Bft)
19/12/2018 01:25 8,9 C 89 % 1018,8 hPa 0,0 mm 1,8 km/h (1 Bft) SO 234 0 min 0,000 mm 0,0 UV-I 0 W/m 7,2 C 8,9 C 6,4 km/h (2 Bft)
19/12/2018 01:20 8,9 C 89 % 1018,7 hPa 0,0 mm 4,3 km/h (1 Bft) SO 221 0 min 0,000 mm 0,0 UV-I 0 W/m 7,2 C 8,9 C 8,0 km/h (2 Bft)
19/12/2018 01:15 9,1 C 89 % 1018,7 hPa 0,0 mm 2,1 km/h (1 Bft) SO 220 0 min 0,000 mm 0,0 UV-I 0 W/m 7,4 C 9,1 C 6,4 km/h (2 Bft)
19/12/2018 01:10 9,1 C 89 % 1018,6 hPa 0,0 mm 4,6 km/h (1 Bft) SO 214 0 min 0,000 mm 0,0 UV-I 0 W/m 7,4 C 8,9 C 8,0 km/h (2 Bft)
19/12/2018 01:05 9,0 C 89 % 1018,7 hPa 0,0 mm 5,0 km/h (1 Bft) SO 220 0 min 0,000 mm 0,0 UV-I 0 W/m 7,3 C 8,6 C 11,3 km/h (2 Bft)
19/12/2018 01:00 9,1 C 89 % 1018,7 hPa 0,0 mm 4,8 km/h (1 Bft) SO 225 0 min 0,000 mm 0,0 UV-I 0 W/m 7,4 C 8,8 C 8,0 km/h (2 Bft)
19/12/2018 00:55 9,2 C 89 % 1018,6 hPa 0,2 mm 3,4 km/h (1 Bft) SO 214 0 min 0,000 mm 0,0 UV-I 0 W/m 7,5 C 9,2 C 9,7 km/h (2 Bft)
19/12/2018 00:50 9,1 C 89 % 1018,7 hPa 0,0 mm 6,0 km/h (2 Bft) S-SE 165 0 min 0,000 mm 0,0 UV-I 0 W/m 7,4 C 8,4 C 14,5 km/h (3 Bft)
19/12/2018 00:45 8,9 C 89 % 1018,6 hPa 0,0 mm 7,7 km/h (2 Bft) SO 223 0 min 0,000 mm 0,0 UV-I 0 W/m 7,2 C 7,8 C 16,1 km/h (3 Bft)
19/12/2018 00:40 8,9 C 89 % 1018,7 hPa 0,0 mm 6,2 km/h (2 Bft) SO 221 0 min 0,000 mm 0,0 UV-I 0 W/m 7,2 C 8,2 C 12,9 km/h (3 Bft)
19/12/2018 00:35 8,8 C 89 % 1018,8 hPa 0,0 mm 4,1 km/h (1 Bft) SO 219 0 min 0,000 mm 0,0 UV-I 0 W/m 7,1 C 8,8 C 9,7 km/h (2 Bft)
19/12/2018 00:30 8,8 C 89 % 1018,7 hPa 0,0 mm 1,5 km/h (1 Bft) NO 310 0 min 0,000 mm 0,0 UV-I 0 W/m 7,1 C 8,8 C 6,4 km/h (2 Bft)
19/12/2018 00:25 8,8 C 89 % 1018,5 hPa 0,0 mm 1,5 km/h (1 Bft) O-SO 244 0 min 0,000 mm 0,0 UV-I 0 W/m 7,1 C 8,8 C 4,8 km/h (1 Bft)
19/12/2018 00:20 8,8 C 89 % 1018,5 hPa 0,0 mm 1,8 km/h (1 Bft) SE 146 0 min 0,000 mm 0,0 UV-I 0 W/m 7,1 C 8,8 C 6,4 km/h (2 Bft)
19/12/2018 00:15 8,8 C 89 % 1018,4 hPa 0,0 mm 2,6 km/h (1 Bft) NO 304 0 min 0,000 mm 0,0 UV-I 0 W/m 7,1 C 8,8 C 6,4 km/h (2 Bft)
19/12/2018 00:10 8,8 C 89 % 1018,3 hPa 0,0 mm 1,0 km/h (0 Bft) O-NO 297 0 min 0,000 mm 0,0 UV-I 0 W/m 7,1 C 8,8 C 6,4 km/h (2 Bft)
19/12/2018 00:05 8,8 C 89 % 1018,2 hPa 0,0 mm 1,2 km/h (1 Bft) SE 138 0 min 0,000 mm 0,0 UV-I 0 W/m 7,1 C 8,8 C 4,8 km/h (1 Bft)
19/12/2018 00:00 8,8 C 89 % 1018,2 hPa 0,0 mm 2,0 km/h (1 Bft) SE 142 0 min 0,000 mm 0,0 UV-I 0 W/m 7,1 C 8,8 C 9,7 km/h (2 Bft)
_ Min-Heure 06:00 01:45 06:00 - 05:10 - - - - - - 06:00 00:45 04:55
Minimum _ 7,8 C 89 % 1017,7 hPa - 0,0 km/h (0 Bft) - - - - - - 6,6 C 7,8 C 0,0 km/h (0 Bft)
_ Max-Heure 00:55 06:00 03:40 05:55 00:45 - - 06:00 06:00 06:00 06:00 00:55 00:55 00:45
Maximum _ 9,2 C 92 % 1019,0 hPa 0,2 mm 7,7 km/h
SO (2 Bft)
- - 0 min 0,000 mm 0,0 UV-I 0 W/m 7,5 C 9,2 C 16,1 km/h
SO (3 Bft)
Moyenne _ 8,3 C 91 % 1018,5 hPa #2,2 mm 2,4 km/h (1 Bft) SO - #0 min. #0,000 mm 0,0 UV-I 0 W/m 6,9 C 8,2 C 6,9 km/h (2 Bft)